Location: Aix-en-Ergny
(50.5839°N, 1.9996°E)
Time: 16:12:40
(UTC+00:00)

Cosmos 1570 Rocket - Pass Details

Date: 23 October 2019
Orbit: 763 x 788 km, 74.1° (Epoch: 17 November)

Event Time Altitude Azimuth Distance (km) Brightness Sun altitude
Rises 05:25:09 0° 332° (NNW) 3,293 7.0 -10.5°
Reaches altitude 10° 05:27:37 10° 327° (NNW) 2,358 6.2 -10.1°
Maximum altitude 05:32:45 48° 254° (WSW) 1,019 4.3 -9.3°
Drops below altitude 10° 05:37:49 10° 181° (S) 2,328 6.6 -8.5°
Sets 05:40:15 0° 176° (S) 3,248 7.4 -8.1°
